Location: Dob?e?
(49.9411°N, 15.1496°E)
Time: 08:01:11
(UTC+00:00)

GEOS 3 Rocket - Pass Details

Date: 07 June 2020
Orbit: 772 x 847 km, 115.0° (Epoch: 12 July)

Event Time Altitude Azimuth Distance (km) Brightness Sun altitude
Rises 00:11:04 0° 122° (ESE) 3,308 6.6 -15.5°
Reaches altitude 10° 00:13:21 10° 119° (ESE) 2,391 5.9 -15.4°
Maximum altitude 00:18:27 59° 41° (NE) 943 4.2 -15.1°
Drops below altitude 10° 00:23:41 10° 323° (NW) 2,448 6.5 -14.9°
Sets 00:26:03 0° 320° (NW) 3,394 7.3 -14.7°
